Time,TemperatureF,DewpointF,PressureIn,WindDirection,WindDirectionDegrees,WindSpeedMPH,WindSpeedGustMPH,Humidity,HourlyPrecipIn,Conditions,Clouds,dailyrainin,SolarRadiationWatts/m^2,SoftwareType,DateUTC
2013-07-12 00:00:00,82.4,76.4,29.88,SSE,148,6.0,14.2,82,0.00,,---,0.00,0.00,VWS V14.01,2013-07-12 05:00:00,
2013-07-12 00:01:00,82.4,76.4,29.88,SE,130,13.0,14.2,82,0.00,,---,0.00,0.00,VWS V14.01,2013-07-12 05:01:00,
2013-07-12 00:05:00,82.6,76.6,29.88,SE,134,5.0,16.2,82,0.00,,---,0.00,0.00,VWS V14.01,2013-07-12 05:05:00,
2013-07-12 00:06:00,82.6,76.6,29.88,SE,144,5.0,16.2,82,0.00,,---,0.00,0.00,VWS V14.01,2013-07-12 05:06:00,
2013-07-12 00:10:00,82.4,76.4,29.88,SSE,160,7.0,12.2,82,0.00,,---,0.00,0.00,VWS V14.01,2013-07-12 05:10:00,
2013-07-12 00:11:00,82.4,76.4,29.88,SE,138,3.0,12.2,82,0.00,,---,0.00,0.00,VWS V14.01,2013-07-12 05:11:00,
2013-07-12 00:15:00,82.2,76.2,29.88,SSE,148,3.0,14.2,82,0.00,,---,0.00,0.00,VWS V14.01,2013-07-12 05:15:00,
2013-07-12 00:16:00,82.2,76.2,29.88,SSE,153,6.0,14.2,82,0.00,,---,0.00,0.00,VWS V14.01,2013-07-12 05:16:00,
2013-07-12 00:20:00,82.2,76.5,29.88,SSE,153,3.0,13.2,83,0.00,,---,0.00,0.00,VWS V14.01,2013-07-12 05:20:00,
2013-07-12 00:21:00,82.2,76.5,29.88,SSE,155,8.0,13.2,83,0.00,,---,0.00,0.00,VWS V14.01,2013-07-12 05:21:00,
2013-07-12 00:25:00,82.0,76.3,29.88,South,175,5.0,15.2,83,0.00,,---,0.00,0.00,VWS V14.01,2013-07-12 05:25:00,
2013-07-12 00:26:00,82.0,76.3,29.88,South,174,3.0,15.2,83,0.00,,---,0.00,0.00,VWS V14.01,2013-07-12 05:26:00,
2013-07-12 00:30:00,82.0,76.3,29.88,SSE,151,10.0,14.2,83,0.00,,---,0.00,0.00,VWS V14.01,2013-07-12 05:30:00,
2013-07-12 00:31:00,82.0,76.3,29.88,SSE,148,6.0,14.2,83,0.00,,---,0.00,0.00,VWS V14.01,2013-07-12 05:31:00,
2013-07-12 00:35:00,82.0,76.0,29.88,SSE,159,4.0,14.2,82,0.00,,---,0.00,0.00,VWS V14.01,2013-07-12 05:35:00,
2013-07-12 00:36:00,82.0,76.3,29.88,SSE,153,5.0,14.2,83,0.00,,---,0.00,0.00,VWS V14.01,2013-07-12 05:36:00,
2013-07-12 00:40:00,82.4,76.0,29.88,ESE,123,9.0,16.2,81,0.00,,---,0.00,0.00,VWS V14.01,2013-07-12 05:40:00,
2013-07-12 00:41:00,82.4,76.0,29.88,SSE,148,5.0,16.2,81,0.00,,---,0.00,0.00,VWS V14.01,2013-07-12 05:41:00,
2013-07-12 00:45:00,82.2,76.2,29.88,South,171,5.0,14.2,82,0.00,,---,0.00,0.00,VWS V14.01,2013-07-12 05:45:00,
2013-07-12 00:46:00,82.2,76.2,29.88,South,173,6.0,14.2,82,0.00,,---,0.00,0.00,VWS V14.01,2013-07-12 05:46:00,
2013-07-12 00:50:00,82.2,76.5,29.88,ESE,121,2.0,15.2,83,0.00,,---,0.00,0.00,VWS V14.01,2013-07-12 05:50:00,
2013-07-12 00:51:00,82.2,76.5,29.88,South,175,8.0,15.2,83,0.00,,---,0.00,0.00,VWS V14.01,2013-07-12 05:51:00,
2013-07-12 00:55:00,82.2,76.2,29.88,South,181,9.0,14.2,82,0.00,,---,0.00,0.00,VWS V14.01,2013-07-12 05:55:00,
2013-07-12 00:56:00,82.2,76.2,29.88,SSW,195,3.0,14.2,82,0.00,,---,0.00,0.00,VWS V14.01,2013-07-12 05:56:00,
2013-07-12 01:00:00,82.2,75.8,29.87,South,180,1.0,14.2,81,0.00,,---,0.00,0.00,VWS V14.01,2013-07-12 06:00:00,
2013-07-12 01:01:00,82.2,75.8,29.87,South,169,4.0,14.2,81,0.00,,---,0.00,0.00,VWS V14.01,2013-07-12 06:01:00,
2013-07-12 01:05:00,82.2,75.8,29.87,SSE,163,10.0,16.2,81,0.00,,---,0.00,0.00,VWS V14.01,2013-07-12 06:05:00,
2013-07-12 01:06:00,82.2,75.8,29.87,SSE,155,13.0,16.2,81,0.00,,---,0.00,0.00,VWS V14.01,2013-07-12 06:06:00,
2013-07-12 01:10:00,82.2,75.8,29.87,SE,137,8.0,13.2,81,0.00,,---,0.00,0.00,VWS V14.01,2013-07-12 06:10:00,
2013-07-12 01:11:00,82.2,76.2,29.87,South,178,3.0,13.2,82,0.00,,---,0.00,0.00,VWS V14.01,2013-07-12 06:11:00,
2013-07-12 01:15:00,82.2,75.8,29.87,SE,139,3.0,16.2,81,0.00,,---,0.00,0.00,VWS V14.01,2013-07-12 06:15:00,
2013-07-12 01:16:00,82.2,75.8,29.87,SE,140,6.0,16.2,81,0.00,,---,0.00,0.00,VWS V14.01,2013-07-12 06:16:00,
2013-07-12 01:20:00,82.2,75.8,29.87,SSE,152,3.0,13.2,81,0.00,,---,0.00,0.00,VWS V14.01,2013-07-12 06:20:00,
2013-07-12 01:21:00,82.2,75.8,29.87,SSE,150,3.0,13.2,81,0.00,,---,0.00,0.00,VWS V14.01,2013-07-12 06:21:00,
2013-07-12 01:25:00,82.0,76.0,29.87,SSW,194,4.0,14.2,82,0.00,,---,0.00,0.00,VWS V14.01,2013-07-12 06:25:00,
2013-07-12 01:26:00,82.0,76.0,29.87,SSE,157,10.0,14.2,82,0.00,,---,0.00,0.00,VWS V14.01,2013-07-12 06:26:00,
2013-07-12 01:30:00,81.8,76.1,29.87,SSE,149,5.0,14.2,83,0.00,,---,0.00,0.00,VWS V14.01,2013-07-12 06:30:00,
2013-07-12 01:31:00,81.8,76.1,29.87,SSE,165,12.0,14.2,83,0.00,,---,0.00,0.00,VWS V14.01,2013-07-12 06:31:00,
2013-07-12 01:35:00,81.6,75.6,29.87,South,178,4.0,17.2,82,0.00,,---,0.00,0.00,VWS V14.01,2013-07-12 06:35:00,
2013-07-12 01:36:00,81.8,75.8,29.87,South,186,9.0,17.2,82,0.00,,---,0.00,0.00,VWS V14.01,2013-07-12 06:36:00,
2013-07-12 01:40:00,81.8,75.8,29.87,SSE,154,4.0,17.2,82,0.00,,---,0.00,0.00,VWS V14.01,2013-07-12 06:40:00,
2013-07-12 01:41:00,81.8,75.8,29.87,South,175,6.0,17.2,82,0.00,,---,0.00,0.00,VWS V14.01,2013-07-12 06:41:00,
2013-07-12 01:45:00,81.8,76.1,29.87,SE,145,12.0,16.2,83,0.00,,---,0.00,0.00,VWS V14.01,2013-07-12 06:45:00,
2013-07-12 01:46:00,81.8,76.1,29.87,SSE,163,11.0,16.2,83,0.00,,---,0.00,0.00,VWS V14.01,2013-07-12 06:46:00,
2013-07-12 01:50:00,81.8,76.1,29.87,SE,146,4.0,16.2,83,0.00,,---,0.00,0.00,VWS V14.01,2013-07-12 06:50:00,
2013-07-12 01:51:00,81.8,76.1,29.87,SSE,160,7.0,16.2,83,0.00,,---,0.00,0.00,VWS V14.01,2013-07-12 06:51:00,
2013-07-12 01:55:00,81.8,76.1,29.87,South,170,5.0,15.2,83,0.00,,---,0.00,0.00,VWS V14.01,2013-07-12 06:55:00,
2013-07-12 01:56:00,81.8,76.1,29.87,SSE,154,7.0,15.2,83,0.00,,---,0.00,0.00,VWS V14.01,2013-07-12 06:56:00,
2013-07-12 02:00:00,81.8,75.8,29.86,SSE,148,6.0,12.2,82,0.00,,---,0.00,0.00,VWS V14.01,2013-07-12 07:00:00,
2013-07-12 02:01:00,81.8,75.8,29.86,SSE,166,11.0,12.2,82,0.00,,---,0.00,0.00,VWS V14.01,2013-07-12 07:01:00,
2013-07-12 02:05:00,81.6,75.6,29.86,South,175,9.0,16.2,82,0.00,,---,0.00,0.00,VWS V14.01,2013-07-12 07:05:00,
2013-07-12 02:06:00,81.8,75.8,29.86,SSE,166,2.0,16.2,82,0.00,,---,0.00,0.00,VWS V14.01,2013-07-12 07:06:00,
2013-07-12 02:10:00,81.6,75.9,29.86,SSE,162,11.0,14.2,83,0.00,,---,0.00,0.00,VWS V14.01,2013-07-12 07:10:00,
2013-07-12 02:11:00,81.6,75.9,29.86,SE,146,8.0,14.2,83,0.00,,---,0.00,0.00,VWS V14.01,2013-07-12 07:11:00,
2013-07-12 02:15:00,81.8,76.1,29.85,SE,136,3.0,14.2,83,0.00,,---,0.00,0.00,VWS V14.01,2013-07-12 07:15:00,
2013-07-12 02:16:00,81.8,76.1,29.85,SSE,167,6.0,14.2,83,0.00,,---,0.00,0.00,VWS V14.01,2013-07-12 07:16:00,
2013-07-12 02:20:00,81.8,75.8,29.85,SSE,165,5.0,14.2,82,0.00,,---,0.00,0.00,VWS V14.01,2013-07-12 07:20:00,
2013-07-12 02:25:00,81.8,75.8,29.85,South,170,2.0,13.2,82,0.00,,---,0.00,0.00,VWS V14.01,2013-07-12 07:25:00,
2013-07-12 02:30:00,81.8,75.8,29.84,South,184,3.0,10.2,82,0.00,,---,0.00,0.00,VWS V14.01,2013-07-12 07:30:00,
2013-07-12 02:35:00,81.6,75.6,29.84,SE,130,5.0,11.2,82,0.00,,---,0.00,0.00,VWS V14.01,2013-07-12 07:35:00,
2013-07-12 02:40:00,81.6,75.6,29.84,SSW,194,10.0,14.2,82,0.00,,---,0.00,0.00,VWS V14.01,2013-07-12 07:40:00,
2013-07-12 02:45:00,81.6,75.6,29.84,SSE,161,6.0,13.2,82,0.00,,---,0.00,0.00,VWS V14.01,2013-07-12 07:45:00,
2013-07-12 02:50:00,81.4,75.7,29.84,South,178,2.0,15.2,83,0.00,,---,0.00,0.00,VWS V14.01,2013-07-12 07:50:00,
2013-07-12 02:55:00,81.4,75.7,29.84,South,182,4.0,14.2,83,0.00,,---,0.00,0.00,VWS V14.01,2013-07-12 07:55:00,
2013-07-12 03:00:00,81.2,75.6,29.84,South,173,5.0,10.2,83,0.00,,---,0.00,0.00,VWS V14.01,2013-07-12 08:00:00,
2013-07-12 03:05:00,81.2,75.6,29.84,South,177,4.0,13.2,83,0.00,,---,0.00,0.00,VWS V14.01,2013-07-12 08:05:00,
2013-07-12 03:10:00,81.2,75.9,29.84,South,171,3.0,8.2,84,0.00,,---,0.00,0.00,VWS V14.01,2013-07-12 08:10:00,
2013-07-12 03:15:00,81.1,75.8,29.84,South,174,2.0,11.2,84,0.00,,---,0.00,0.00,VWS V14.01,2013-07-12 08:15:00,
2013-07-12 03:20:00,81.2,75.9,29.84,SSE,161,4.0,8.2,84,0.00,,---,0.00,0.00,VWS V14.01,2013-07-12 08:20:00,
2013-07-12 03:25:00,81.2,75.9,29.84,SSW,197,5.0,11.2,84,0.00,,---,0.00,0.00,VWS V14.01,2013-07-12 08:25:00,
2013-07-12 03:30:00,81.1,75.8,29.84,SW,215,4.0,10.2,84,0.00,,---,0.00,0.00,VWS V14.01,2013-07-12 08:30:00,
2013-07-12 03:35:00,81.1,75.8,29.84,SE,129,5.0,13.2,84,0.00,,---,0.00,0.00,VWS V14.01,2013-07-12 08:35:00,
2013-07-12 03:40:00,81.2,75.9,29.84,South,178,4.0,10.2,84,0.00,,---,0.00,0.00,VWS V14.01,2013-07-12 08:40:00,
2013-07-12 03:45:00,81.2,75.9,29.83,South,187,2.0,8.2,84,0.00,,---,0.00,0.00,VWS V14.01,2013-07-12 08:45:00,
2013-07-12 03:50:00,81.2,75.9,29.83,SSE,161,3.0,9.2,84,0.00,,---,0.00,0.00,VWS V14.01,2013-07-12 08:50:00,
2013-07-12 03:55:00,81.2,75.9,29.83,South,186,4.0,10.2,84,0.00,,---,0.00,0.00,VWS V14.01,2013-07-12 08:55:00,
2013-07-12 04:00:00,81.1,75.8,29.82,South,186,1.0,12.2,84,0.00,,---,0.00,0.00,VWS V14.01,2013-07-12 09:00:00,
2013-07-12 04:05:00,80.9,75.6,29.82,SSW,196,4.0,11.2,84,0.00,,---,0.00,0.00,VWS V14.01,2013-07-12 09:05:00,
2013-07-12 04:10:00,80.9,75.6,29.82,SSW,200,4.0,12.2,84,0.00,,---,0.00,0.00,VWS V14.01,2013-07-12 09:10:00,
2013-07-12 04:15:00,80.7,75.4,29.82,SSW,196,1.0,8.2,84,0.00,,---,0.00,0.00,VWS V14.01,2013-07-12 09:15:00,
2013-07-12 04:20:00,80.7,75.4,29.82,SSW,202,4.0,8.2,84,0.00,,---,0.00,0.00,VWS V14.01,2013-07-12 09:20:00,
2013-07-12 04:25:00,80.5,75.2,29.82,SSE,159,3.0,12.2,84,0.00,,---,0.00,0.00,VWS V14.01,2013-07-12 09:25:00,
2013-07-12 04:30:00,80.5,75.2,29.83,SSW,192,1.0,10.2,84,0.00,,---,0.00,0.00,VWS V14.01,2013-07-12 09:30:00,
2013-07-12 04:35:00,80.5,75.2,29.83,SSW,192,4.0,11.2,84,0.00,,---,0.00,0.00,VWS V14.01,2013-07-12 09:35:00,
2013-07-12 04:40:00,80.5,74.9,29.83,SSW,200,5.0,7.2,83,0.00,,---,0.00,0.00,VWS V14.01,2013-07-12 09:40:00,
2013-07-12 04:45:00,80.5,75.2,29.84,SSW,193,3.0,6.2,84,0.00,,---,0.00,0.00,VWS V14.01,2013-07-12 09:45:00,
2013-07-12 04:50:00,80.5,75.2,29.84,SSW,193,0.0,5.2,84,0.00,,---,0.00,0.00,VWS V14.01,2013-07-12 09:50:00,
2013-07-12 04:55:00,80.5,75.2,29.84,South,190,1.0,6.2,84,0.00,,---,0.00,0.00,VWS V14.01,2013-07-12 09:55:00,
2013-07-12 05:00:00,80.5,75.2,29.84,SSW,192,3.0,7.2,84,0.00,,---,0.00,0.00,VWS V14.01,2013-07-12 10:00:00,
2013-07-12 05:05:00,80.5,75.6,29.84,SSW,194,6.0,7.2,85,0.00,,---,0.00,0.00,VWS V14.01,2013-07-12 10:05:00,
2013-07-12 05:10:00,80.3,75.4,29.84,SSW,197,4.0,7.2,85,0.00,,---,0.00,0.00,VWS V14.01,2013-07-12 10:10:00,
2013-07-12 05:15:00,80.1,75.2,29.83,SSW,198,4.0,5.2,85,0.00,,---,0.00,0.00,VWS V14.01,2013-07-12 10:15:00,
2013-07-12 05:20:00,79.8,75.2,29.83,SSW,198,3.0,6.2,86,0.00,,---,0.00,0.00,VWS V14.01,2013-07-12 10:20:00,
2013-07-12 05:25:00,79.6,75.1,29.83,SSW,195,0.0,6.2,86,0.00,,---,0.00,0.00,VWS V14.01,2013-07-12 10:25:00,
2013-07-12 05:30:00,79.2,74.7,29.83,SSW,196,2.0,7.2,86,0.00,,---,0.00,0.00,VWS V14.01,2013-07-12 10:30:00,
2013-07-12 05:35:00,79.2,74.7,29.83,SSW,195,0.0,6.2,86,0.00,,---,0.00,0.00,VWS V14.01,2013-07-12 10:35:00,
2013-07-12 05:40:00,79.0,74.8,29.83,SSW,195,2.0,5.2,87,0.00,,---,0.00,0.00,VWS V14.01,2013-07-12 10:40:00,
2013-07-12 05:45:00,78.8,74.6,29.84,SSW,195,1.0,5.2,87,0.00,,---,0.00,0.00,VWS V14.01,2013-07-12 10:45:00,
2013-07-12 05:50:00,78.8,74.6,29.84,SSW,195,2.0,5.2,87,0.00,,---,0.00,0.00,VWS V14.01,2013-07-12 10:50:00,
2013-07-12 05:55:00,78.8,74.9,29.84,SSW,195,0.0,5.2,88,0.00,,---,0.00,0.00,VWS V14.01,2013-07-12 10:55:00,
2013-07-12 06:00:00,78.6,74.8,29.84,SSW,195,1.0,3.2,88,0.00,,---,0.00,0.00,VWS V14.01,2013-07-12 11:00:00,
2013-07-12 06:05:00,78.6,74.8,29.84,SSW,195,0.0,3.2,88,0.00,,---,0.00,0.00,VWS V14.01,2013-07-12 11:05:00,
2013-07-12 06:10:00,78.5,75.0,29.84,SSW,195,0.0,3.2,89,0.00,,---,0.00,0.00,VWS V14.01,2013-07-12 11:10:00,
2013-07-12 06:15:00,78.3,74.8,29.84,SSW,195,1.0,2.2,89,0.00,,---,0.00,0.00,VWS V14.01,2013-07-12 11:15:00,
2013-07-12 06:20:00,78.3,74.8,29.84,SSW,195,0.0,3.2,89,0.00,,---,0.00,0.00,VWS V14.01,2013-07-12 11:20:00,
2013-07-12 06:25:00,78.3,75.1,29.84,SSW,195,0.0,3.2,90,0.00,,---,0.00,0.00,VWS V14.01,2013-07-12 11:25:00,
2013-07-12 06:30:00,78.1,74.9,29.84,SSW,195,0.0,2.2,90,0.00,,---,0.00,0.00,VWS V14.01,2013-07-12 11:30:00,
2013-07-12 06:35:00,78.1,74.9,29.84,SSW,195,0.0,1.2,90,0.00,,---,0.00,0.00,VWS V14.01,2013-07-12 11:35:00,
2013-07-12 06:40:00,77.9,75.1,29.84,SSW,195,0.0,2.2,91,0.00,,---,0.00,0.00,VWS V14.01,2013-07-12 11:40:00,
2013-07-12 06:45:00,77.9,75.1,29.85,SSW,195,0.0,1.2,91,0.00,,---,0.00,0.00,VWS V14.01,2013-07-12 11:45:00,
2013-07-12 06:50:00,77.9,75.1,29.85,SSW,195,0.0,1.2,91,0.00,,---,0.00,5.00,VWS V14.01,2013-07-12 11:50:00,
2013-07-12 06:55:00,77.7,74.9,29.85,SSW,195,0.0,1.2,91,0.00,,---,0.00,7.00,VWS V14.01,2013-07-12 11:55:00,
2013-07-12 07:00:00,77.7,74.9,29.86,SSW,195,0.0,1.2,91,0.00,,---,0.00,12.00,VWS V14.01,2013-07-12 12:00:00,
2013-07-12 07:05:00,77.7,75.2,29.86,SSW,195,0.0,1.2,92,0.00,,---,0.00,12.00,VWS V14.01,2013-07-12 12:05:00,
2013-07-12 07:10:00,77.6,75.1,29.86,SSW,195,0.0,1.2,92,0.00,,---,0.00,14.00,VWS V14.01,2013-07-12 12:10:00,
2013-07-12 07:15:00,77.6,75.1,29.86,SSW,195,0.0,1.2,92,0.00,,---,0.00,25.00,VWS V14.01,2013-07-12 12:15:00,
2013-07-12 07:20:00,77.6,75.1,29.86,SSW,195,0.0,1.2,92,0.00,,---,0.00,32.00,VWS V14.01,2013-07-12 12:20:00,
2013-07-12 07:25:00,77.7,75.2,29.86,SSW,195,0.0,1.2,92,0.00,,---,0.00,35.00,VWS V14.01,2013-07-12 12:25:00,
2013-07-12 07:30:00,77.9,75.4,29.87,SSW,195,0.0,1.2,92,0.00,,---,0.00,37.00,VWS V14.01,2013-07-12 12:30:00,
2013-07-12 07:35:00,78.1,75.6,29.87,SSW,195,0.0,1.2,92,0.00,,---,0.00,30.00,VWS V14.01,2013-07-12 12:35:00,
2013-07-12 07:40:00,78.3,75.8,29.87,SSW,195,0.0,1.2,92,0.00,,---,0.00,32.00,VWS V14.01,2013-07-12 12:40:00,
2013-07-12 07:45:00,78.3,75.8,29.87,SSW,195,0.0,1.2,92,0.00,,---,0.00,37.00,VWS V14.01,2013-07-12 12:45:00,
2013-07-12 07:50:00,78.3,75.8,29.87,SSW,195,0.0,1.2,92,0.00,,---,0.00,42.00,VWS V14.01,2013-07-12 12:50:00,
2013-07-12 07:55:00,78.5,75.7,29.87,SSW,195,0.0,1.2,91,0.00,,---,0.00,56.00,VWS V14.01,2013-07-12 12:55:00,
2013-07-12 08:00:00,78.8,75.9,29.87,SSW,195,0.0,1.2,91,0.00,,---,0.00,58.00,VWS V14.01,2013-07-12 13:00:00,
2013-07-12 08:05:00,79.4,76.2,29.87,SSW,195,0.0,2.2,90,0.00,,---,0.00,60.00,VWS V14.01,2013-07-12 13:05:00,
2013-07-12 08:10:00,80.1,76.6,29.87,SSW,195,1.0,4.2,89,0.00,,---,0.00,60.00,VWS V14.01,2013-07-12 13:10:00,
2013-07-12 08:15:00,80.7,76.5,29.87,SSW,195,1.0,4.2,87,0.00,,---,0.00,62.00,VWS V14.01,2013-07-12 13:15:00,
2013-07-12 08:20:00,81.1,76.5,29.87,SSW,194,4.0,5.2,86,0.00,,---,0.00,67.00,VWS V14.01,2013-07-12 13:20:00,
2013-07-12 08:25:00,81.6,76.3,29.87,SSW,194,2.0,4.2,84,0.00,,---,0.00,77.00,VWS V14.01,2013-07-12 13:25:00,
2013-07-12 08:30:00,82.0,76.0,29.88,SSW,198,3.0,6.2,82,0.00,,---,0.00,81.00,VWS V14.01,2013-07-12 13:30:00,
2013-07-12 08:35:00,82.6,76.2,29.88,South,180,4.0,7.2,81,0.00,,---,0.00,77.00,VWS V14.01,2013-07-12 13:35:00,
2013-07-12 08:40:00,83.0,75.8,29.88,SSW,207,1.0,6.2,79,0.00,,---,0.00,74.00,VWS V14.01,2013-07-12 13:40:00,
2013-07-12 08:45:00,83.4,75.8,29.88,SSW,210,1.0,8.2,78,0.00,,---,0.00,74.00,VWS V14.01,2013-07-12 13:45:00,
2013-07-12 08:50:00,83.6,75.6,29.88,South,188,3.0,7.2,77,0.00,,---,0.00,74.00,VWS V14.01,2013-07-12 13:50:00,
2013-07-12 08:55:00,84.0,75.6,29.88,SSE,156,4.0,7.2,76,0.00,,---,0.00,70.00,VWS V14.01,2013-07-12 13:55:00,
2013-07-12 09:00:00,84.0,74.8,29.88,SW,230,1.0,10.2,74,0.00,,---,0.00,72.00,VWS V14.01,2013-07-12 14:00:00,
2013-07-12 09:05:00,84.1,74.9,29.88,SSE,148,4.0,11.2,74,0.00,,---,0.00,76.00,VWS V14.01,2013-07-12 14:05:00,
2013-07-12 09:10:00,84.3,74.7,29.88,South,173,3.0,11.2,73,0.00,,---,0.00,77.00,VWS V14.01,2013-07-12 14:10:00,
2013-07-12 09:15:00,84.7,75.1,29.88,South,190,3.0,6.2,73,0.00,,---,0.00,91.00,VWS V14.01,2013-07-12 14:15:00,
2013-07-12 09:20:00,84.9,75.7,29.88,SE,146,2.0,8.2,74,0.00,,---,0.00,121.00,VWS V14.01,2013-07-12 14:20:00,
2013-07-12 09:25:00,85.1,75.9,29.88,SSE,153,9.0,10.2,74,0.00,,---,0.00,162.00,VWS V14.01,2013-07-12 14:25:00,
2013-07-12 09:30:00,85.3,76.1,29.88,ESE,121,9.0,10.2,74,0.00,,---,0.00,221.00,VWS V14.01,2013-07-12 14:30:00,
2013-07-12 09:35:00,85.1,75.9,29.88,SE,142,4.0,10.2,74,0.00,,---,0.00,290.00,VWS V14.01,2013-07-12 14:35:00,
2013-07-12 09:40:00,85.7,76.1,29.88,SE,141,6.0,10.2,73,0.00,,---,0.00,374.00,VWS V14.01,2013-07-12 14:40:00,
2013-07-12 09:45:00,85.7,75.6,29.88,ESE,113,5.0,8.2,72,0.00,,---,0.00,445.00,VWS V14.01,2013-07-12 14:45:00,
2013-07-12 09:50:00,86.3,75.4,29.88,SE,128,6.0,7.2,70,0.00,,---,0.00,534.00,VWS V14.01,2013-07-12 14:50:00,
2013-07-12 09:55:00,86.5,74.2,29.88,South,190,4.0,10.2,67,0.00,,---,0.00,605.00,VWS V14.01,2013-07-12 14:55:00,
2013-07-12 10:00:00,86.7,74.4,29.88,South,177,5.0,10.2,67,0.00,,---,0.00,610.00,VWS V14.01,2013-07-12 15:00:00,
2013-07-12 10:05:00,86.5,75.1,29.88,South,173,6.0,12.2,69,0.00,,---,0.00,621.00,VWS V14.01,2013-07-12 15:05:00,
2013-07-12 10:10:00,86.5,75.1,29.88,SE,136,5.0,10.2,69,0.00,,---,0.00,624.00,VWS V14.01,2013-07-12 15:10:00,
2013-07-12 10:15:00,86.5,75.1,29.88,SSE,147,4.0,14.2,69,0.00,,---,0.00,640.00,VWS V14.01,2013-07-12 15:15:00,
2013-07-12 10:20:00,86.7,75.8,29.88,SSE,168,1.0,10.2,70,0.00,,---,0.00,657.00,VWS V14.01,2013-07-12 15:20:00,
2013-07-12 10:25:00,87.2,75.8,29.88,SE,131,7.0,12.2,69,0.00,,---,0.00,670.00,VWS V14.01,2013-07-12 15:25:00,
2013-07-12 10:30:00,87.0,75.6,29.89,SSE,168,4.0,9.2,69,0.00,,---,0.00,686.00,VWS V14.01,2013-07-12 15:30:00,
2013-07-12 10:35:00,87.0,75.6,29.89,SE,143,5.0,10.2,69,0.00,,---,0.00,698.00,VWS V14.01,2013-07-12 15:35:00,
2013-07-12 10:40:00,87.4,75.6,29.89,SSE,165,3.0,11.2,68,0.00,,---,0.00,714.00,VWS V14.01,2013-07-12 15:40:00,
2013-07-12 10:45:00,87.8,75.9,29.88,SSE,166,4.0,10.2,68,0.00,,---,0.00,726.00,VWS V14.01,2013-07-12 15:45:00,
2013-07-12 10:50:00,88.2,75.9,29.88,SSE,159,3.0,11.2,67,0.00,,---,0.00,740.00,VWS V14.01,2013-07-12 15:50:00,
2013-07-12 10:55:00,89.0,76.2,29.88,SE,129,5.0,7.2,66,0.00,,---,0.00,754.00,VWS V14.01,2013-07-12 15:55:00,
2013-07-12 11:00:00,89.0,76.2,29.88,East,97,5.0,13.2,66,0.00,,---,0.00,775.00,VWS V14.01,2013-07-12 16:00:00,
2013-07-12 11:05:00,89.0,75.7,29.88,SE,138,4.0,12.2,65,0.00,,---,0.00,726.00,VWS V14.01,2013-07-12 16:05:00,
2013-07-12 11:10:00,88.6,75.3,29.88,ESE,123,7.0,12.2,65,0.00,,---,0.00,867.00,VWS V14.01,2013-07-12 16:10:00,
2013-07-12 11:15:00,88.4,75.1,29.87,East,101,5.0,14.2,65,0.00,,---,0.00,468.00,VWS V14.01,2013-07-12 16:15:00,
2013-07-12 11:20:00,88.0,74.3,29.87,SSE,164,4.0,10.2,64,0.00,,---,0.00,489.00,VWS V14.01,2013-07-12 16:20:00,
2013-07-12 11:25:00,87.6,74.8,29.87,SSE,149,7.0,11.2,66,0.00,,---,0.00,970.00,VWS V14.01,2013-07-12 16:25:00,
2013-07-12 11:30:00,89.0,74.8,29.88,SE,138,5.0,11.2,63,0.00,,---,0.00,916.00,VWS V14.01,2013-07-12 16:30:00,
2013-07-12 11:35:00,89.3,75.1,29.88,SSE,156,5.0,11.2,63,0.00,,---,0.00,891.00,VWS V14.01,2013-07-12 16:35:00,
2013-07-12 11:40:00,89.7,75.4,29.88,SE,136,10.0,12.2,63,0.00,,---,0.00,888.00,VWS V14.01,2013-07-12 16:40:00,
2013-07-12 11:45:00,90.5,76.7,29.88,ESE,105,5.0,11.2,64,0.00,,---,0.00,900.00,VWS V14.01,2013-07-12 16:45:00,
2013-07-12 11:50:00,90.5,76.7,29.88,ESE,111,6.0,11.2,64,0.00,,---,0.00,918.00,VWS V14.01,2013-07-12 16:50:00,
2013-07-12 11:55:00,89.9,76.6,29.88,East,101,7.0,11.2,65,0.00,,---,0.00,847.00,VWS V14.01,2013-07-12 16:55:00,
2013-07-12 12:00:00,88.8,76.0,29.87,SE,142,6.0,12.2,66,0.00,,---,0.00,765.00,VWS V14.01,2013-07-12 17:00:00,
2013-07-12 12:05:00,88.6,75.3,29.87,SE,140,7.0,12.2,65,0.00,,---,0.00,916.00,VWS V14.01,2013-07-12 17:05:00,
2013-07-12 12:10:00,88.4,75.6,29.87,SE,128,9.0,14.2,66,0.00,,---,0.00,921.00,VWS V14.01,2013-07-12 17:10:00,
2013-07-12 12:15:00,89.3,76.5,29.87,East,101,5.0,12.2,66,0.00,,---,0.00,928.00,VWS V14.01,2013-07-12 17:15:00,
2013-07-12 12:20:00,90.3,76.0,29.87,ESE,112,5.0,11.2,63,0.00,,---,0.00,930.00,VWS V14.01,2013-07-12 17:20:00,
2013-07-12 12:21:00,90.3,76.0,29.87,ESE,113,3.0,11.2,63,0.00,,---,0.00,930.00,VWS V14.01,2013-07-12 17:21:00,
2013-07-12 12:25:00,89.7,75.9,29.87,ESE,117,7.0,14.2,64,0.00,,---,0.00,935.00,VWS V14.01,2013-07-12 17:25:00,
2013-07-12 12:26:00,89.9,76.1,29.87,SE,138,10.0,13.2,64,0.00,,---,0.00,935.00,VWS V14.01,2013-07-12 17:26:00,
2013-07-12 12:30:00,89.3,75.5,29.87,SSE,158,8.0,13.2,64,0.00,,---,0.00,926.00,VWS V14.01,2013-07-12 17:30:00,
2013-07-12 12:31:00,89.5,75.7,29.87,ESE,122,12.0,13.2,64,0.00,,---,0.00,926.00,VWS V14.01,2013-07-12 17:31:00,
2013-07-12 12:35:00,89.3,76.0,29.87,SSE,150,5.0,15.2,65,0.00,,---,0.00,946.00,VWS V14.01,2013-07-12 17:35:00,
2013-07-12 12:36:00,89.3,76.0,29.87,SSE,150,4.0,6.2,65,0.00,,---,0.00,939.00,VWS V14.01,2013-07-12 17:36:00,
2013-07-12 12:40:00,89.3,75.5,29.87,SE,142,6.0,13.2,64,0.00,,---,0.00,933.00,VWS V14.01,2013-07-12 17:40:00,
2013-07-12 12:41:00,89.3,75.5,29.87,SE,142,6.0,13.2,64,0.00,,---,0.00,933.00,VWS V14.01,2013-07-12 17:41:00,
2013-07-12 12:45:00,89.7,75.9,29.87,ESE,110,4.0,14.2,64,0.00,,---,0.00,935.00,VWS V14.01,2013-07-12 17:45:00,
2013-07-12 12:46:00,89.7,76.4,29.87,ESE,110,4.0,5.2,65,0.00,,---,0.00,935.00,VWS V14.01,2013-07-12 17:46:00,
2013-07-12 12:50:00,89.9,75.6,29.87,ESE,119,5.0,14.2,63,0.00,,---,0.00,923.00,VWS V14.01,2013-07-12 17:50:00,
2013-07-12 12:51:00,89.9,75.6,29.87,ESE,114,7.0,8.2,63,0.00,,---,0.00,923.00,VWS V14.01,2013-07-12 17:51:00,
2013-07-12 12:55:00,90.1,75.8,29.87,SE,128,10.0,12.2,63,0.00,,---,0.00,835.00,VWS V14.01,2013-07-12 17:55:00,
2013-07-12 12:57:00,90.1,75.8,29.87,SSE,147,7.0,11.2,63,0.00,,---,0.00,810.00,VWS V14.01,2013-07-12 17:57:00,
2013-07-12 13:00:00,89.3,75.1,29.87,ESE,115,5.0,14.2,63,0.00,,---,0.00,775.00,VWS V14.01,2013-07-12 18:00:00,
2013-07-12 13:02:00,89.3,75.5,29.87,SE,137,7.0,11.2,64,0.00,,---,0.00,954.00,VWS V14.01,2013-07-12 18:02:00,
2013-07-12 13:05:00,89.0,75.7,29.87,ESE,109,7.0,14.2,65,0.00,,---,0.00,512.00,VWS V14.01,2013-07-12 18:05:00,
2013-07-12 13:07:00,89.0,76.2,29.87,SE,131,11.0,12.2,66,0.00,,---,0.00,512.00,VWS V14.01,2013-07-12 18:07:00,
2013-07-12 13:10:00,88.8,75.5,29.87,SSE,150,9.0,14.2,65,0.00,,---,0.00,1018.00,VWS V14.01,2013-07-12 18:10:00,
2013-07-12 13:12:00,88.8,75.5,29.87,SE,125,6.0,12.2,65,0.00,,---,0.00,977.00,VWS V14.01,2013-07-12 18:12:00,
2013-07-12 13:15:00,89.5,76.2,29.87,SSE,159,10.0,16.2,65,0.00,,---,0.00,960.00,VWS V14.01,2013-07-12 18:15:00,
2013-07-12 13:17:00,89.7,76.4,29.87,SSE,155,7.0,12.2,65,0.00,,---,0.00,947.00,VWS V14.01,2013-07-12 18:17:00,
2013-07-12 13:20:00,90.3,76.0,29.87,SSE,167,10.0,16.2,63,0.00,,---,0.00,923.00,VWS V14.01,2013-07-12 18:20:00,
2013-07-12 13:22:00,90.1,75.8,29.87,East,81,4.0,11.2,63,0.00,,---,0.00,1011.00,VWS V14.01,2013-07-12 18:22:00,
2013-07-12 13:25:00,89.7,75.9,29.87,SE,132,10.0,16.2,64,0.00,,---,0.00,1025.00,VWS V14.01,2013-07-12 18:25:00,
2013-07-12 13:27:00,89.7,75.9,29.87,ESE,109,5.0,12.2,64,0.00,,---,0.00,1014.00,VWS V14.01,2013-07-12 18:27:00,
2013-07-12 13:30:00,89.9,76.1,29.87,East,94,7.0,13.2,64,0.00,,---,0.00,882.00,VWS V14.01,2013-07-12 18:30:00,
2013-07-12 13:32:00,89.9,76.1,29.87,SE,132,6.0,11.2,64,0.00,,---,0.00,844.00,VWS V14.01,2013-07-12 18:32:00,
2013-07-12 13:35:00,89.5,77.1,29.87,ESE,113,7.0,13.2,67,0.00,,---,0.00,1027.00,VWS V14.01,2013-07-12 18:35:00,
2013-07-12 13:37:00,89.3,76.5,29.87,East,92,7.0,13.2,66,0.00,,---,0.00,940.00,VWS V14.01,2013-07-12 18:37:00,
2013-07-12 13:40:00,89.3,76.5,29.87,ESE,120,5.0,14.2,66,0.00,,---,0.00,817.00,VWS V14.01,2013-07-12 18:40:00,
2013-07-12 13:42:00,89.5,77.1,29.87,ESE,112,5.0,14.2,67,0.00,,---,0.00,849.00,VWS V14.01,2013-07-12 18:42:00,
2013-07-12 13:45:00,89.9,75.6,29.87,ESE,117,9.0,17.2,63,0.00,,---,0.00,1013.00,VWS V14.01,2013-07-12 18:45:00,
2013-07-12 13:48:00,89.7,75.9,29.87,East,101,7.0,14.2,64,0.00,,---,0.00,1016.00,VWS V14.01,2013-07-12 18:48:00,
2013-07-12 13:50:00,89.7,76.4,29.87,East,99,4.0,15.2,65,0.00,,---,0.00,1000.00,VWS V14.01,2013-07-12 18:50:00,
2013-07-12 13:53:00,89.5,77.6,29.87,East,101,9.0,16.2,68,0.00,,---,0.00,1007.00,VWS V14.01,2013-07-12 18:53:00,
2013-07-12 13:55:00,89.0,77.1,29.87,East,97,8.0,16.2,68,0.00,,---,0.00,1011.00,VWS V14.01,2013-07-12 18:55:00,
2013-07-12 13:58:00,89.0,76.2,29.87,SE,125,9.0,13.2,66,0.00,,---,0.00,967.00,VWS V14.01,2013-07-12 18:58:00,
2013-07-12 14:00:00,88.8,76.4,29.87,ESE,105,4.0,16.2,67,0.00,,---,0.00,877.00,VWS V14.01,2013-07-12 19:00:00,
2013-07-12 14:03:00,89.5,76.7,29.87,ESE,117,8.0,15.2,66,0.00,,---,0.00,874.00,VWS V14.01,2013-07-12 19:03:00,
2013-07-12 14:05:00,89.5,77.1,29.87,East,79,7.0,15.2,67,0.00,,---,0.00,884.00,VWS V14.01,2013-07-12 19:05:00,
2013-07-12 14:08:00,89.3,76.5,29.87,SE,125,10.0,13.2,66,0.00,,---,0.00,893.00,VWS V14.01,2013-07-12 19:08:00,
2013-07-12 14:10:00,89.0,76.2,29.87,SE,127,14.0,15.2,66,0.00,,---,0.00,872.00,VWS V14.01,2013-07-12 19:10:00,
2013-07-12 14:13:00,89.0,76.6,29.87,ESE,117,5.0,15.2,67,0.00,,---,0.00,942.00,VWS V14.01,2013-07-12 19:13:00,
2013-07-12 14:15:00,90.3,76.5,29.87,SE,137,9.0,15.2,64,0.00,,---,0.00,926.00,VWS V14.01,2013-07-12 19:15:00,
2013-07-12 14:18:00,90.3,76.5,29.87,ESE,113,7.0,13.2,64,0.00,,---,0.00,981.00,VWS V14.01,2013-07-12 19:18:00,
2013-07-12 14:20:00,89.7,76.4,29.87,East,98,7.0,16.2,65,0.00,,---,0.00,1007.00,VWS V14.01,2013-07-12 19:20:00,
2013-07-12 14:23:00,89.7,75.9,29.87,SSE,151,11.0,13.2,64,0.00,,---,0.00,912.00,VWS V14.01,2013-07-12 19:23:00,
2013-07-12 14:25:00,89.0,75.7,29.87,SE,131,7.0,16.2,65,0.00,,---,0.00,819.00,VWS V14.01,2013-07-12 19:25:00,
2013-07-12 14:28:00,89.0,76.6,29.87,SE,126,9.0,14.2,67,0.00,,---,0.00,891.00,VWS V14.01,2013-07-12 19:28:00,
2013-07-12 14:30:00,89.0,76.2,29.87,ESE,113,6.0,14.2,66,0.00,,---,0.00,951.00,VWS V14.01,2013-07-12 19:30:00,
2013-07-12 14:33:00,89.0,76.6,29.87,East,82,9.0,14.2,67,0.00,,---,0.00,944.00,VWS V14.01,2013-07-12 19:33:00,
2013-07-12 14:35:00,89.0,75.7,29.87,SE,145,4.0,15.2,65,0.00,,---,0.00,928.00,VWS V14.01,2013-07-12 19:35:00,
2013-07-12 14:38:00,89.0,75.7,29.87,SE,126,9.0,14.2,65,0.00,,---,0.00,947.00,VWS V14.01,2013-07-12 19:38:00,
2013-07-12 14:40:00,89.5,76.2,29.87,SE,145,7.0,15.2,65,0.00,,---,0.00,930.00,VWS V14.01,2013-07-12 19:40:00,
2013-07-12 14:43:00,89.9,76.6,29.87,SE,140,6.0,14.2,65,0.00,,---,0.00,953.00,VWS V14.01,2013-07-12 19:43:00,
2013-07-12 14:45:00,90.5,76.2,29.86,ESE,118,8.0,16.2,63,0.00,,---,0.00,937.00,VWS V14.01,2013-07-12 19:45:00,
2013-07-12 14:49:00,90.1,75.8,29.86,East,94,9.0,15.2,63,0.00,,---,0.00,944.00,VWS V14.01,2013-07-12 19:49:00,
2013-07-12 14:50:00,90.1,76.3,29.86,East,94,7.0,15.2,64,0.00,,---,0.00,937.00,VWS V14.01,2013-07-12 19:50:00,
2013-07-12 14:54:00,90.1,76.8,29.86,SE,136,9.0,14.2,65,0.00,,---,0.00,937.00,VWS V14.01,2013-07-12 19:54:00,
2013-07-12 14:55:00,90.1,76.8,29.86,ESE,119,9.0,14.2,65,0.00,,---,0.00,940.00,VWS V14.01,2013-07-12 19:55:00,
2013-07-12 14:59:00,89.7,76.4,29.86,ESE,108,10.0,15.2,65,0.00,,---,0.00,930.00,VWS V14.01,2013-07-12 19:59:00,
2013-07-12 15:00:00,89.7,76.4,29.86,SE,136,10.0,16.2,65,0.00,,---,0.00,930.00,VWS V14.01,2013-07-12 20:00:00,
2013-07-12 15:04:00,89.7,76.4,29.86,ESE,121,7.0,14.2,65,0.00,,---,0.00,925.00,VWS V14.01,2013-07-12 20:04:00,
2013-07-12 15:05:00,90.1,76.8,29.86,ESE,119,11.0,14.2,65,0.00,,---,0.00,919.00,VWS V14.01,2013-07-12 20:05:00,
2013-07-12 15:09:00,90.7,77.3,29.86,SE,126,9.0,15.2,65,0.00,,---,0.00,933.00,VWS V14.01,2013-07-12 20:09:00,
2013-07-12 15:10:00,90.5,77.1,29.86,ESE,119,5.0,16.2,65,0.00,,---,0.00,933.00,VWS V14.01,2013-07-12 20:10:00,
2013-07-12 15:14:00,90.3,76.9,29.86,SE,141,14.0,15.2,65,0.00,,---,0.00,926.00,VWS V14.01,2013-07-12 20:14:00,
2013-07-12 15:15:00,89.7,76.8,29.86,ESE,109,8.0,15.2,66,0.00,,---,0.00,905.00,VWS V14.01,2013-07-12 20:15:00,
2013-07-12 15:19:00,89.5,76.7,29.86,SE,138,16.0,18.2,66,0.00,,---,0.00,902.00,VWS V14.01,2013-07-12 20:19:00,
2013-07-12 15:20:00,89.0,76.6,29.86,South,169,9.0,18.2,67,0.00,,---,0.00,900.00,VWS V14.01,2013-07-12 20:20:00,
2013-07-12 15:24:00,89.3,76.5,29.86,SE,135,11.0,17.2,66,0.00,,---,0.00,884.00,VWS V14.01,2013-07-12 20:24:00,
2013-07-12 15:25:00,89.3,76.5,29.86,SE,146,11.0,17.2,66,0.00,,---,0.00,882.00,VWS V14.01,2013-07-12 20:25:00,
2013-07-12 15:29:00,89.5,76.7,29.86,ESE,118,10.0,17.2,66,0.00,,---,0.00,875.00,VWS V14.01,2013-07-12 20:29:00,
2013-07-12 15:30:00,89.7,76.4,29.86,East,100,4.0,17.2,65,0.00,,---,0.00,872.00,VWS V14.01,2013-07-12 20:30:00,
2013-07-12 15:34:00,89.9,76.1,29.86,ESE,109,6.0,14.2,64,0.00,,---,0.00,865.00,VWS V14.01,2013-07-12 20:34:00,
2013-07-12 15:35:00,90.1,75.8,29.86,East,90,6.0,16.2,63,0.00,,---,0.00,865.00,VWS V14.01,2013-07-12 20:35:00,
2013-07-12 15:39:00,90.7,76.8,29.86,SE,146,14.0,15.2,64,0.00,,---,0.00,788.00,VWS V14.01,2013-07-12 20:39:00,
2013-07-12 15:40:00,90.7,76.4,29.86,SSE,155,7.0,18.2,63,0.00,,---,0.00,861.00,VWS V14.01,2013-07-12 20:40:00,
2013-07-12 15:44:00,89.9,76.6,29.86,SSE,148,12.0,17.2,65,0.00,,---,0.00,847.00,VWS V14.01,2013-07-12 20:44:00,
2013-07-12 15:45:00,89.0,76.2,29.86,SSE,149,13.0,19.2,66,0.00,,---,0.00,860.00,VWS V14.01,2013-07-12 20:45:00,
2013-07-12 15:49:00,89.5,76.7,29.86,East,100,7.0,15.2,66,0.00,,---,0.00,849.00,VWS V14.01,2013-07-12 20:49:00,
2013-07-12 15:50:00,90.1,76.8,29.86,SE,131,7.0,15.2,65,0.00,,---,0.00,861.00,VWS V14.01,2013-07-12 20:50:00,
2013-07-12 15:54:00,89.9,77.0,29.86,ESE,119,16.0,17.2,66,0.00,,---,0.00,860.00,VWS V14.01,2013-07-12 20:54:00,
2013-07-12 15:55:00,89.7,76.8,29.86,SE,130,5.0,17.2,66,0.00,,---,0.00,846.00,VWS V14.01,2013-07-12 20:55:00,
2013-07-12 15:59:00,89.7,76.4,29.86,East,100,13.0,16.2,65,0.00,,---,0.00,826.00,VWS V14.01,2013-07-12 20:59:00,
2013-07-12 16:00:00,89.7,76.4,29.86,East,92,8.0,16.2,65,0.00,,---,0.00,828.00,VWS V14.01,2013-07-12 21:00:00,
2013-07-12 16:04:00,89.9,76.1,29.86,SE,132,5.0,17.2,64,0.00,,---,0.00,810.00,VWS V14.01,2013-07-12 21:04:00,
2013-07-12 16:05:00,89.9,76.6,29.86,ESE,109,12.0,17.2,65,0.00,,---,0.00,798.00,VWS V14.01,2013-07-12 21:05:00,
2013-07-12 16:10:00,89.3,76.0,29.86,South,171,7.0,16.2,65,0.00,,---,0.00,802.00,VWS V14.01,2013-07-12 21:10:00,
2013-07-12 16:15:00,89.3,76.0,29.86,SE,133,12.0,16.2,65,0.00,,---,0.00,798.00,VWS V14.01,2013-07-12 21:15:00,
2013-07-12 16:20:00,89.7,76.4,29.86,SSE,160,16.0,17.2,65,0.00,,---,0.00,765.00,VWS V14.01,2013-07-12 21:20:00,
2013-07-12 16:25:00,89.3,76.5,29.86,SSE,148,7.0,17.2,66,0.00,,---,0.00,758.00,VWS V14.01,2013-07-12 21:25:00,
2013-07-12 16:30:00,89.3,76.5,29.86,SE,126,12.0,16.2,66,0.00,,---,0.00,733.00,VWS V14.01,2013-07-12 21:30:00,
2013-07-12 16:35:00,89.0,74.8,29.85,SE,142,9.0,16.2,63,0.00,,---,0.00,721.00,VWS V14.01,2013-07-12 21:35:00,
2013-07-12 16:40:00,88.2,76.3,29.85,East,90,9.0,19.2,68,0.00,,---,0.00,738.00,VWS V14.01,2013-07-12 21:40:00,
2013-07-12 16:45:00,88.2,75.9,29.85,ESE,102,7.0,17.2,67,0.00,,---,0.00,696.00,VWS V14.01,2013-07-12 21:45:00,
2013-07-12 16:46:00,88.2,75.9,29.85,SE,146,8.0,17.2,67,0.00,,---,0.00,696.00,VWS V14.01,2013-07-12 21:46:00,
2013-07-12 16:50:00,88.8,76.0,29.85,SE,128,9.0,14.2,66,0.00,,---,0.00,671.00,VWS V14.01,2013-07-12 21:50:00,
2013-07-12 16:51:00,88.8,76.0,29.85,SSE,148,5.0,14.2,66,0.00,,---,0.00,671.00,VWS V14.01,2013-07-12 21:51:00,
2013-07-12 16:55:00,88.8,76.0,29.85,SE,134,13.0,16.2,66,0.00,,---,0.00,671.00,VWS V14.01,2013-07-12 21:55:00,
2013-07-12 16:56:00,88.8,76.0,29.85,SE,134,13.0,16.2,66,0.00,,---,0.00,671.00,VWS V14.01,2013-07-12 21:56:00,
2013-07-12 17:00:00,88.4,76.1,29.85,SE,134,5.0,17.2,67,0.00,,---,0.00,668.00,VWS V14.01,2013-07-12 22:00:00,
2013-07-12 17:01:00,88.4,76.1,29.85,SE,134,9.0,10.2,67,0.00,,---,0.00,668.00,VWS V14.01,2013-07-12 22:01:00,
2013-07-12 17:05:00,88.8,76.0,29.85,SE,142,11.0,16.2,66,0.00,,---,0.00,654.00,VWS V14.01,2013-07-12 22:05:00,
2013-07-12 17:06:00,88.8,76.0,29.85,SE,136,7.0,16.2,66,0.00,,---,0.00,654.00,VWS V14.01,2013-07-12 22:06:00,
2013-07-12 17:10:00,88.2,76.3,29.85,SE,134,7.0,16.2,68,0.00,,---,0.00,612.00,VWS V14.01,2013-07-12 22:10:00,
2013-07-12 17:11:00,88.2,76.3,29.85,SE,134,7.0,16.2,68,0.00,,---,0.00,612.00,VWS V14.01,2013-07-12 22:11:00,
2013-07-12 17:15:00,88.4,75.6,29.85,SE,136,13.0,17.2,66,0.00,,---,0.00,594.00,VWS V14.01,2013-07-12 22:15:00,
2013-07-12 17:16:00,88.4,75.6,29.85,SE,136,13.0,17.2,66,0.00,,---,0.00,594.00,VWS V14.01,2013-07-12 22:16:00,
2013-07-12 17:20:00,89.0,75.7,29.85,SSE,163,12.0,15.2,65,0.00,,---,0.00,580.00,VWS V14.01,2013-07-12 22:20:00,
2013-07-12 17:21:00,89.0,75.7,29.85,SSE,163,12.0,15.2,65,0.00,,---,0.00,580.00,VWS V14.01,2013-07-12 22:21:00,
2013-07-12 17:25:00,88.8,75.1,29.85,ESE,121,12.0,18.2,64,0.00,,---,0.00,563.00,VWS V14.01,2013-07-12 22:25:00,
2013-07-12 17:26:00,88.8,75.1,29.85,ESE,121,12.0,18.2,64,0.00,,---,0.00,563.00,VWS V14.01,2013-07-12 22:26:00,
2013-07-12 17:30:00,87.8,75.5,29.84,SE,146,9.0,17.2,67,0.00,,---,0.00,547.00,VWS V14.01,2013-07-12 22:30:00,
2013-07-12 17:31:00,87.8,75.5,29.84,SE,146,9.0,17.2,67,0.00,,---,0.00,547.00,VWS V14.01,2013-07-12 22:31:00,
2013-07-12 17:35:00,88.0,76.6,29.84,East,97,10.0,18.2,69,0.00,,---,0.00,531.00,VWS V14.01,2013-07-12 22:35:00,
2013-07-12 17:36:00,88.0,76.6,29.84,East,97,10.0,18.2,69,0.00,,---,0.00,531.00,VWS V14.01,2013-07-12 22:36:00,
2013-07-12 17:40:00,88.2,76.3,29.84,SE,126,10.0,15.2,68,0.00,,---,0.00,519.00,VWS V14.01,2013-07-12 22:40:00,
2013-07-12 17:41:00,88.2,76.3,29.84,SE,126,10.0,15.2,68,0.00,,---,0.00,519.00,VWS V14.01,2013-07-12 22:41:00,
2013-07-12 17:45:00,88.8,76.0,29.84,SE,124,12.0,17.2,66,0.00,,---,0.00,497.00,VWS V14.01,2013-07-12 22:45:00,
2013-07-12 17:46:00,88.8,76.0,29.84,SE,124,12.0,17.2,66,0.00,,---,0.00,497.00,VWS V14.01,2013-07-12 22:46:00,
2013-07-12 17:50:00,89.0,75.7,29.84,SE,128,9.0,16.2,65,0.00,,---,0.00,478.00,VWS V14.01,2013-07-12 22:50:00,
2013-07-12 17:51:00,89.0,75.7,29.84,ESE,121,10.0,16.2,65,0.00,,---,0.00,483.00,VWS V14.01,2013-07-12 22:51:00,
2013-07-12 17:55:00,88.4,75.6,29.84,ESE,105,10.0,15.2,66,0.00,,---,0.00,464.00,VWS V14.01,2013-07-12 22:55:00,
2013-07-12 17:56:00,88.4,75.6,29.84,SSE,152,7.0,12.2,66,0.00,,---,0.00,464.00,VWS V14.01,2013-07-12 22:56:00,
2013-07-12 18:00:00,88.0,76.1,29.84,ESE,113,6.0,15.2,68,0.00,,---,0.00,468.00,VWS V14.01,2013-07-12 23:00:00,
2013-07-12 18:01:00,88.0,76.1,29.84,East,95,6.0,7.2,68,0.00,,---,0.00,468.00,VWS V14.01,2013-07-12 23:01:00,
2013-07-12 18:05:00,87.8,76.4,29.84,SE,134,5.0,12.2,69,0.00,,---,0.00,434.00,VWS V14.01,2013-07-12 23:05:00,
2013-07-12 18:06:00,87.8,76.4,29.84,SSE,163,7.0,10.2,69,0.00,,---,0.00,434.00,VWS V14.01,2013-07-12 23:06:00,
2013-07-12 18:10:00,87.4,75.6,29.84,SE,132,7.0,15.2,68,0.00,,---,0.00,411.00,VWS V14.01,2013-07-12 23:10:00,
2013-07-12 18:11:00,87.4,75.6,29.84,SSE,155,8.0,15.2,68,0.00,,---,0.00,406.00,VWS V14.01,2013-07-12 23:11:00,
2013-07-12 18:15:00,88.0,75.7,29.84,ESE,106,6.0,15.2,67,0.00,,---,0.00,392.00,VWS V14.01,2013-07-12 23:15:00,
2013-07-12 18:17:00,88.0,75.7,29.84,ESE,103,9.0,15.2,67,0.00,,---,0.00,388.00,VWS V14.01,2013-07-12 23:17:00,
2013-07-12 18:20:00,88.0,75.2,29.84,ESE,104,10.0,15.2,66,0.00,,---,0.00,374.00,VWS V14.01,2013-07-12 23:20:00,
2013-07-12 18:22:00,87.8,74.6,29.84,SE,130,6.0,12.2,65,0.00,,---,0.00,374.00,VWS V14.01,2013-07-12 23:22:00,
2013-07-12 18:25:00,87.4,75.1,29.84,ESE,121,7.0,13.2,67,0.00,,---,0.00,357.00,VWS V14.01,2013-07-12 23:25:00,
2013-07-12 18:27:00,87.4,75.1,29.84,ESE,113,11.0,13.2,67,0.00,,---,0.00,353.00,VWS V14.01,2013-07-12 23:27:00,
2013-07-12 18:30:00,87.0,75.2,29.84,SE,132,14.0,15.2,68,0.00,,---,0.00,338.00,VWS V14.01,2013-07-12 23:30:00,
2013-07-12 18:32:00,87.0,75.2,29.84,SE,124,6.0,15.2,68,0.00,,---,0.00,336.00,VWS V14.01,2013-07-12 23:32:00,
2013-07-12 18:35:00,87.2,76.2,29.84,SE,128,9.0,15.2,70,0.00,,---,0.00,318.00,VWS V14.01,2013-07-12 23:35:00,
2013-07-12 18:37:00,87.2,76.2,29.84,SSE,165,9.0,13.2,70,0.00,,---,0.00,313.00,VWS V14.01,2013-07-12 23:37:00,
2013-07-12 18:40:00,87.2,76.2,29.84,SE,138,10.0,14.2,70,0.00,,---,0.00,304.00,VWS V14.01,2013-07-12 23:40:00,
2013-07-12 18:42:00,87.2,76.2,29.84,SE,139,4.0,11.2,70,0.00,,---,0.00,304.00,VWS V14.01,2013-07-12 23:42:00,
2013-07-12 18:45:00,87.2,74.9,29.83,SSE,148,6.0,17.2,67,0.00,,---,0.00,292.00,VWS V14.01,2013-07-12 23:45:00,
2013-07-12 18:47:00,87.0,74.7,29.83,SE,142,7.0,15.2,67,0.00,,---,0.00,287.00,VWS V14.01,2013-07-12 23:47:00,
2013-07-12 18:50:00,86.5,74.2,29.83,SE,142,12.0,15.2,67,0.00,,---,0.00,276.00,VWS V14.01,2013-07-12 23:50:00,
2013-07-12 18:52:00,86.5,74.7,29.83,SSE,157,6.0,14.2,68,0.00,,---,0.00,276.00,VWS V14.01,2013-07-12 23:52:00,
2013-07-12 18:55:00,86.5,73.8,29.83,SE,132,11.0,14.2,66,0.00,,---,0.00,188.00,VWS V14.01,2013-07-12 23:55:00,
2013-07-12 18:57:00,86.5,73.8,29.83,ESE,105,11.0,14.2,66,0.00,,---,0.00,188.00,VWS V14.01,2013-07-12 23:57:00,
2013-07-12 19:00:00,86.1,74.3,29.83,ESE,111,8.0,14.2,68,0.00,,---,0.00,151.00,VWS V14.01,2013-07-13 00:00:00,
2013-07-12 19:02:00,86.1,74.3,29.83,SSE,148,4.0,9.2,68,0.00,,---,0.00,151.00,VWS V14.01,2013-07-13 00:02:00,
2013-07-12 19:05:00,86.3,75.4,29.83,SE,146,9.0,10.2,70,0.00,,---,0.00,93.00,VWS V14.01,2013-07-13 00:05:00,
2013-07-12 19:07:00,86.3,75.4,29.83,SSE,156,9.0,11.2,70,0.00,,---,0.00,130.00,VWS V14.01,2013-07-13 00:07:00,
2013-07-12 19:10:00,85.9,74.6,29.83,SE,132,9.0,14.2,69,0.00,,---,0.00,195.00,VWS V14.01,2013-07-13 00:10:00,
2013-07-12 19:12:00,85.7,74.4,29.83,ESE,119,12.0,13.2,69,0.00,,---,0.00,190.00,VWS V14.01,2013-07-13 00:12:00,
2013-07-12 19:15:00,85.5,74.2,29.83,SSE,155,7.0,13.2,69,0.00,,---,0.00,51.00,VWS V14.01,2013-07-13 00:15:00,
2013-07-12 19:17:00,85.3,74.0,29.83,ESE,113,3.0,8.2,69,0.00,,---,0.00,47.00,VWS V14.01,2013-07-13 00:17:00,
2013-07-12 19:20:00,85.1,74.6,29.83,ESE,116,6.0,12.2,71,0.00,,---,0.00,58.00,VWS V14.01,2013-07-13 00:20:00,
2013-07-12 19:22:00,85.1,74.6,29.83,SE,128,7.0,11.2,71,0.00,,---,0.00,97.00,VWS V14.01,2013-07-13 00:22:00,
2013-07-12 19:25:00,84.5,74.5,29.83,ESE,123,12.0,14.2,72,0.00,,---,0.00,90.00,VWS V14.01,2013-07-13 00:25:00,
2013-07-12 19:27:00,84.3,73.9,29.83,SE,132,4.0,13.2,71,0.00,,---,0.00,65.00,VWS V14.01,2013-07-13 00:27:00,
2013-07-12 19:30:00,84.5,74.1,29.83,SE,136,6.0,13.2,71,0.00,,---,0.00,118.00,VWS V14.01,2013-07-13 00:30:00,
2013-07-12 19:32:00,84.7,74.3,29.83,SE,144,7.0,12.2,71,0.00,,---,0.00,109.00,VWS V14.01,2013-07-13 00:32:00,
2013-07-12 19:35:00,85.3,74.4,29.83,SE,124,7.0,13.2,70,0.00,,---,0.00,46.00,VWS V14.01,2013-07-13 00:35:00,
2013-07-12 19:37:00,85.5,74.2,29.83,ESE,121,9.0,12.2,69,0.00,,---,0.00,51.00,VWS V14.01,2013-07-13 00:37:00,
2013-07-12 19:40:00,84.9,74.0,29.83,ESE,115,11.0,13.2,70,0.00,,---,0.00,37.00,VWS V14.01,2013-07-13 00:40:00,
2013-07-12 19:42:00,84.7,73.8,29.83,SSE,150,8.0,12.2,70,0.00,,---,0.00,33.00,VWS V14.01,2013-07-13 00:42:00,
2013-07-12 19:45:00,84.7,74.7,29.83,SE,138,11.0,12.2,72,0.00,,---,0.00,32.00,VWS V14.01,2013-07-13 00:45:00,
2013-07-12 19:48:00,84.5,74.9,29.83,SE,140,5.0,12.2,73,0.00,,---,0.00,30.00,VWS V14.01,2013-07-13 00:48:00,
2013-07-12 19:50:00,84.3,75.1,29.83,SE,126,5.0,12.2,74,0.00,,---,0.00,28.00,VWS V14.01,2013-07-13 00:50:00,
2013-07-12 19:53:00,84.1,74.1,29.83,SE,126,7.0,14.2,72,0.00,,---,0.00,26.00,VWS V14.01,2013-07-13 00:53:00,
2013-07-12 19:55:00,84.0,74.8,29.83,SE,124,3.0,14.2,74,0.00,,---,0.00,28.00,VWS V14.01,2013-07-13 00:55:00,
2013-07-12 19:58:00,84.0,74.8,29.83,SE,143,7.0,13.2,74,0.00,,---,0.00,25.00,VWS V14.01,2013-07-13 00:58:00,
2013-07-12 20:00:00,83.8,74.6,29.83,SSE,160,4.0,13.2,74,0.00,,---,0.00,19.00,VWS V14.01,2013-07-13 01:00:00,
2013-07-12 20:03:00,83.8,74.6,29.83,SE,132,4.0,10.2,74,0.00,,---,0.00,19.00,VWS V14.01,2013-07-13 01:03:00,
2013-07-12 20:05:00,84.0,74.8,29.83,SSE,149,3.0,10.2,74,0.00,,---,0.00,16.00,VWS V14.01,2013-07-13 01:05:00,
2013-07-12 20:08:00,84.0,75.2,29.83,SSE,158,5.0,11.2,75,0.00,,---,0.00,16.00,VWS V14.01,2013-07-13 01:08:00,
2013-07-12 20:10:00,83.8,75.0,29.83,SE,132,7.0,11.2,75,0.00,,---,0.00,16.00,VWS V14.01,2013-07-13 01:10:00,
2013-07-12 20:13:00,83.4,74.7,29.83,SSE,147,6.0,12.2,75,0.00,,---,0.00,14.00,VWS V14.01,2013-07-13 01:13:00,
2013-07-12 20:15:00,83.2,74.8,29.83,SE,133,10.0,13.2,76,0.00,,---,0.00,12.00,VWS V14.01,2013-07-13 01:15:00,
2013-07-12 20:18:00,83.2,74.8,29.83,SE,135,6.0,12.2,76,0.00,,---,0.00,11.00,VWS V14.01,2013-07-13 01:18:00,
2013-07-12 20:20:00,83.0,74.7,29.83,SE,142,7.0,12.2,76,0.00,,---,0.00,7.00,VWS V14.01,2013-07-13 01:20:00,
2013-07-12 20:23:00,83.0,74.7,29.83,SSE,153,11.0,12.2,76,0.00,,---,0.00,7.00,VWS V14.01,2013-07-13 01:23:00,
2013-07-12 20:25:00,83.0,75.1,29.83,SSE,150,11.0,14.2,77,0.00,,---,0.00,0.00,VWS V14.01,2013-07-13 01:25:00,
2013-07-12 20:28:00,83.0,75.1,29.83,ESE,119,3.0,13.2,77,0.00,,---,0.00,0.00,VWS V14.01,2013-07-13 01:28:00,
2013-07-12 20:30:00,83.0,75.1,29.83,SE,131,3.0,13.2,77,0.00,,---,0.00,0.00,VWS V14.01,2013-07-13 01:30:00,
2013-07-12 20:33:00,83.4,75.4,29.83,SSE,151,9.0,13.2,77,0.00,,---,0.00,0.00,VWS V14.01,2013-07-13 01:33:00,
2013-07-12 20:35:00,83.6,75.2,29.83,SSE,158,6.0,13.2,76,0.00,,---,0.00,0.00,VWS V14.01,2013-07-13 01:35:00,
2013-07-12 20:38:00,83.4,74.7,29.83,SSE,162,7.0,13.2,75,0.00,,---,0.00,0.00,VWS V14.01,2013-07-13 01:38:00,
2013-07-12 20:40:00,83.2,74.5,29.83,SE,135,11.0,13.2,75,0.00,,---,0.00,0.00,VWS V14.01,2013-07-13 01:40:00,
2013-07-12 20:43:00,83.2,74.8,29.83,SE,128,7.0,14.2,76,0.00,,---,0.00,0.00,VWS V14.01,2013-07-13 01:43:00,
2013-07-12 20:45:00,83.0,75.1,29.83,SE,137,7.0,14.2,77,0.00,,---,0.00,0.00,VWS V14.01,2013-07-13 01:45:00,
2013-07-12 20:48:00,83.0,75.1,29.83,SE,134,6.0,12.2,77,0.00,,---,0.00,0.00,VWS V14.01,2013-07-13 01:48:00,
2013-07-12 20:50:00,83.0,75.1,29.83,ESE,123,3.0,12.2,77,0.00,,---,0.00,0.00,VWS V14.01,2013-07-13 01:50:00,
2013-07-12 20:53:00,83.0,75.1,29.83,SE,127,5.0,13.2,77,0.00,,---,0.00,0.00,VWS V14.01,2013-07-13 01:53:00,
2013-07-12 20:55:00,82.8,74.9,29.83,ESE,116,4.0,13.2,77,0.00,,---,0.00,0.00,VWS V14.01,2013-07-13 01:55:00,
2013-07-12 20:58:00,82.6,75.1,29.83,ESE,121,11.0,12.2,78,0.00,,---,0.00,0.00,VWS V14.01,2013-07-13 01:58:00,
2013-07-12 21:00:00,82.6,75.4,29.83,SE,128,5.0,14.2,79,0.00,,---,0.00,0.00,VWS V14.01,2013-07-13 02:00:00,
2013-07-12 21:03:00,82.8,75.2,29.83,SE,141,3.0,12.2,78,0.00,,---,0.00,0.00,VWS V14.01,2013-07-13 02:03:00,
2013-07-12 21:05:00,82.8,74.9,29.83,SE,124,5.0,13.2,77,0.00,,---,0.00,0.00,VWS V14.01,2013-07-13 02:05:00,
2013-07-12 21:08:00,82.8,74.5,29.83,SE,138,9.0,11.2,76,0.00,,---,0.00,0.00,VWS V14.01,2013-07-13 02:08:00,
2013-07-12 21:10:00,82.6,74.7,29.83,SE,135,3.0,11.2,77,0.00,,---,0.00,0.00,VWS V14.01,2013-07-13 02:10:00,
2013-07-12 21:14:00,82.4,74.5,29.83,ESE,120,7.0,12.2,77,0.00,,---,0.00,0.00,VWS V14.01,2013-07-13 02:14:00,
2013-07-12 21:15:00,82.4,74.5,29.83,ESE,121,6.0,12.2,77,0.00,,---,0.00,0.00,VWS V14.01,2013-07-13 02:15:00,
2013-07-12 21:19:00,82.2,74.3,29.83,SSE,148,6.0,12.2,77,0.00,,---,0.00,0.00,VWS V14.01,2013-07-13 02:19:00,
2013-07-12 21:20:00,82.2,74.3,29.83,SE,136,9.0,12.2,77,0.00,,---,0.00,0.00,VWS V14.01,2013-07-13 02:20:00,
2013-07-12 21:24:00,82.2,74.3,29.83,SE,124,2.0,10.2,77,0.00,,---,0.00,0.00,VWS V14.01,2013-07-13 02:24:00,
2013-07-12 21:25:00,82.2,74.3,29.83,SE,130,4.0,10.2,77,0.00,,---,0.00,0.00,VWS V14.01,2013-07-13 02:25:00,
2013-07-12 21:29:00,82.2,74.7,29.83,SE,139,2.0,11.2,78,0.00,,---,0.00,0.00,VWS V14.01,2013-07-13 02:29:00,
2013-07-12 21:30:00,82.2,74.7,29.82,SE,142,3.0,11.2,78,0.00,,---,0.00,0.00,VWS V14.01,2013-07-13 02:30:00,
2013-07-12 21:34:00,82.4,74.9,29.82,SE,138,4.0,11.2,78,0.00,,---,0.00,0.00,VWS V14.01,2013-07-13 02:34:00,
2013-07-12 21:35:00,82.6,75.1,29.82,South,175,3.0,11.2,78,0.00,,---,0.00,0.00,VWS V14.01,2013-07-13 02:35:00,
2013-07-12 21:39:00,82.8,74.9,29.82,South,174,2.0,12.2,77,0.00,,---,0.00,0.00,VWS V14.01,2013-07-13 02:39:00,
2013-07-12 21:40:00,82.8,75.2,29.82,SE,136,4.0,12.2,78,0.00,,---,0.00,0.00,VWS V14.01,2013-07-13 02:40:00,
2013-07-12 21:44:00,82.6,75.1,29.82,SE,128,3.0,11.2,78,0.00,,---,0.00,0.00,VWS V14.01,2013-07-13 02:44:00,
2013-07-12 21:45:00,82.6,75.1,29.82,SE,127,1.0,11.2,78,0.00,,---,0.00,0.00,VWS V14.01,2013-07-13 02:45:00,
2013-07-12 21:49:00,82.6,75.1,29.82,SE,146,2.0,8.2,78,0.00,,---,0.00,0.00,VWS V14.01,2013-07-13 02:49:00,
2013-07-12 21:50:00,82.6,75.1,29.82,SE,144,8.0,10.2,78,0.00,,---,0.00,0.00,VWS V14.01,2013-07-13 02:50:00,
2013-07-12 21:54:00,82.4,74.9,29.82,SE,145,4.0,11.2,78,0.00,,---,0.00,0.00,VWS V14.01,2013-07-13 02:54:00,
2013-07-12 21:55:00,82.2,74.7,29.82,SSE,148,3.0,11.2,78,0.00,,---,0.00,0.00,VWS V14.01,2013-07-13 02:55:00,
2013-07-12 21:59:00,82.0,74.8,29.82,SE,137,4.0,10.2,79,0.00,,---,0.00,0.00,VWS V14.01,2013-07-13 02:59:00,
2013-07-12 22:00:00,82.0,74.8,29.82,SSE,148,6.0,10.2,79,0.00,,---,0.00,0.00,VWS V14.01,2013-07-13 03:00:00,
2013-07-12 22:05:00,82.0,74.8,29.82,SE,140,2.0,10.2,79,0.00,,---,0.00,0.00,VWS V14.01,2013-07-13 03:05:00,
2013-07-12 22:10:00,82.0,74.8,29.82,SE,131,4.0,9.2,79,0.00,,---,0.00,0.00,VWS V14.01,2013-07-13 03:10:00,
2013-07-12 22:15:00,82.2,74.7,29.82,SE,136,4.0,9.2,78,0.00,,---,0.00,0.00,VWS V14.01,2013-07-13 03:15:00,
2013-07-12 22:19:00,82.0,75.2,29.82,SSE,153,0.0,11.2,80,0.00,,---,0.00,0.00,VWS V14.01,2013-07-13 03:19:00,
2013-07-12 22:20:00,82.0,75.2,29.82,SSE,157,3.0,11.2,80,0.00,,---,0.00,0.00,VWS V14.01,2013-07-13 03:20:00,
2013-07-12 22:25:00,81.8,75.0,29.82,SE,134,1.0,9.2,80,0.00,,---,0.00,0.00,VWS V14.01,2013-07-13 03:25:00,
2013-07-12 22:30:00,81.8,75.0,29.82,South,171,1.0,11.2,80,0.00,,---,0.00,0.00,VWS V14.01,2013-07-13 03:30:00,
2013-07-12 22:35:00,81.8,75.4,29.83,SE,146,5.0,11.2,81,0.00,,---,0.00,0.00,VWS V14.01,2013-07-13 03:35:00,
2013-07-12 22:40:00,81.8,75.4,29.83,SE,142,5.0,8.2,81,0.00,,---,0.00,0.00,VWS V14.01,2013-07-13 03:40:00,
2013-07-12 22:45:00,82.2,75.8,29.83,SSE,165,9.0,12.2,81,0.00,,---,0.00,0.00,VWS V14.01,2013-07-13 03:45:00,
2013-07-12 22:50:00,82.6,75.4,29.84,SE,142,4.0,10.2,79,0.00,,---,0.00,0.00,VWS V14.01,2013-07-13 03:50:00,
2013-07-12 22:55:00,82.6,75.4,29.84,SE,129,2.0,10.2,79,0.00,,---,0.00,0.00,VWS V14.01,2013-07-13 03:55:00,
2013-07-12 23:00:00,82.2,75.4,29.84,SSE,163,4.0,12.2,80,0.00,,---,0.00,0.00,VWS V14.01,2013-07-13 04:00:00,
2013-07-12 23:01:00,82.2,75.4,29.84,SSE,148,7.0,13.2,80,0.00,,---,0.00,0.00,VWS V14.01,2013-07-13 04:01:00,
2013-07-12 23:02:00,82.0,75.2,29.84,SSE,148,3.0,6.2,80,0.00,,---,0.00,0.00,VWS V14.01,2013-07-13 04:02:00,
2013-07-12 23:05:00,81.8,75.4,29.84,SE,135,1.0,11.2,81,0.00,,---,0.00,0.00,VWS V14.01,2013-07-13 04:05:00,
2013-07-12 23:07:00,81.8,75.4,29.84,SE,136,4.0,5.2,81,0.00,,---,0.00,0.00,VWS V14.01,2013-07-13 04:07:00,
2013-07-12 23:10:00,81.6,75.2,29.84,SE,140,1.0,8.2,81,0.00,,---,0.00,0.00,VWS V14.01,2013-07-13 04:10:00,
2013-07-12 23:12:00,81.6,75.2,29.84,SSE,148,4.0,8.2,81,0.00,,---,0.00,0.00,VWS V14.01,2013-07-13 04:12:00,
2013-07-12 23:15:00,81.6,75.2,29.84,SSE,147,4.0,8.2,81,0.00,,---,0.00,0.00,VWS V14.01,2013-07-13 04:15:00,
2013-07-12 23:17:00,81.6,75.2,29.84,SSE,150,4.0,5.2,81,0.00,,---,0.00,0.00,VWS V14.01,2013-07-13 04:17:00,
2013-07-12 23:20:00,81.6,75.2,29.84,SSE,148,4.0,10.2,81,0.00,,---,0.00,0.00,VWS V14.01,2013-07-13 04:20:00,
2013-07-12 23:22:00,81.8,75.4,29.84,SSE,162,4.0,10.2,81,0.00,,---,0.00,0.00,VWS V14.01,2013-07-13 04:22:00,
2013-07-12 23:25:00,81.8,75.0,29.84,SSE,148,5.0,12.2,80,0.00,,---,0.00,0.00,VWS V14.01,2013-07-13 04:25:00,
2013-07-12 23:27:00,81.8,75.0,29.84,South,171,4.0,10.2,80,0.00,,---,0.00,0.00,VWS V14.01,2013-07-13 04:27:00,
2013-07-12 23:30:00,81.8,75.0,29.84,SE,146,3.0,11.2,80,0.00,,---,0.00,0.00,VWS V14.01,2013-07-13 04:30:00,
2013-07-12 23:32:00,81.6,74.8,29.84,SE,144,7.0,8.2,80,0.00,,---,0.00,0.00,VWS V14.01,2013-07-13 04:32:00,
2013-07-12 23:35:00,81.6,74.8,29.84,SE,135,4.0,12.2,80,0.00,,---,0.00,0.00,VWS V14.01,2013-07-13 04:35:00,
2013-07-12 23:37:00,81.6,74.8,29.84,SSE,157,3.0,6.2,80,0.00,,---,0.00,0.00,VWS V14.01,2013-07-13 04:37:00,
2013-07-12 23:40:00,81.6,75.2,29.84,South,182,9.0,12.2,81,0.00,,---,0.00,0.00,VWS V14.01,2013-07-13 04:40:00,
2013-07-12 23:42:00,81.6,75.2,29.84,SE,145,4.0,13.2,81,0.00,,---,0.00,0.00,VWS V14.01,2013-07-13 04:42:00,
2013-07-12 23:45:00,81.6,74.8,29.84,SSE,152,2.0,13.2,80,0.00,,---,0.00,0.00,VWS V14.01,2013-07-13 04:45:00,
2013-07-12 23:47:00,81.6,75.2,29.84,South,180,2.0,4.2,81,0.00,,---,0.00,0.00,VWS V14.01,2013-07-13 04:47:00,
2013-07-12 23:50:00,81.6,75.2,29.84,SE,138,7.0,13.2,81,0.00,,---,0.00,0.00,VWS V14.01,2013-07-13 04:50:00,
2013-07-12 23:52:00,81.6,74.8,29.84,South,175,3.0,13.2,80,0.00,,---,0.00,0.00,VWS V14.01,2013-07-13 04:52:00,
2013-07-12 23:55:00,81.8,75.0,29.84,SSE,151,4.0,13.2,80,0.00,,---,0.00,0.00,VWS V14.01,2013-07-13 04:55:00,
2013-07-12 23:57:00,81.8,75.0,29.84,SSE,156,5.0,6.2,80,0.00,,---,0.00,0.00,VWS V14.01,2013-07-13 04:57:00,